Time,TemperatureF,DewpointF,PressureIn,WindDirection,WindDirectionDegrees,WindSpeedMPH,WindSpeedGustMPH,Humidity,HourlyPrecipIn,Conditions,Clouds,dailyrainin,SoftwareType,DateUTC
2013-04-15 00:02:00,71.0,65.0,29.62,North,355,1.0,5.0,81,0.00,,,0.00,,2013-04-15 05:02:00,
2013-04-15 00:12:00,71.0,65.0,29.62,North,355,1.0,5.0,81,0.00,,,0.00,,2013-04-15 05:12:00,
2013-04-15 00:23:00,72.0,65.0,29.62,SE,129,1.0,9.0,80,0.00,,,0.00,,2013-04-15 05:23:00,
2013-04-15 00:33:00,72.0,65.0,29.62,SE,124,1.0,6.0,80,0.00,,,0.00,,2013-04-15 05:33:00,
2013-04-15 00:42:00,72.0,65.0,29.62,SE,124,1.0,6.0,80,0.00,,,0.00,,2013-04-15 05:42:00,
2013-04-15 00:52:00,72.0,65.0,29.62,East,88,1.0,16.0,80,0.00,,,0.00,,2013-04-15 05:52:00,
2013-04-15 01:02:00,71.0,65.0,29.62,NE,49,0.0,9.0,81,0.00,,,0.00,,2013-04-15 06:02:00,
2013-04-15 01:12:00,71.0,65.0,29.62,NE,49,0.0,9.0,81,0.00,,,0.00,,2013-04-15 06:12:00,
2013-04-15 01:22:00,71.0,65.0,29.62,East,98,2.0,7.0,82,0.00,,,0.00,,2013-04-15 06:22:00,
2013-04-15 01:33:00,71.0,66.0,29.62,NE,41,1.0,7.0,83,0.00,,,0.00,,2013-04-15 06:33:00,
2013-04-15 01:42:00,71.0,66.0,29.62,NE,41,1.0,7.0,83,0.00,,,0.00,,2013-04-15 06:42:00,
2013-04-15 01:52:00,70.0,65.0,29.62,NNE,12,1.0,11.0,84,0.00,,,0.00,,2013-04-15 06:52:00,
2013-04-15 02:02:00,70.0,65.0,29.62,SSE,167,1.0,7.0,84,0.00,,,0.00,,2013-04-15 07:02:00,
2013-04-15 02:42:00,69.0,65.0,29.61,NNE,12,1.0,7.0,86,0.00,,,0.00,,2013-04-15 07:42:00,
2013-04-15 02:52:00,69.0,65.0,29.61,SSE,167,1.0,6.0,87,0.00,,,0.00,,2013-04-15 07:52:00,
2013-04-15 03:02:00,69.0,65.0,29.62,WSW,249,1.0,5.0,87,0.00,,,0.00,,2013-04-15 08:02:00,
2013-04-15 03:13:00,69.0,65.0,29.62,WSW,249,1.0,5.0,87,0.00,,,0.00,,2013-04-15 08:13:00,
2013-04-15 03:22:00,68.0,64.0,29.61,WNW,291,0.0,8.0,88,0.00,,,0.00,,2013-04-15 08:22:00,
2013-04-15 03:33:00,68.0,65.0,29.61,WNW,303,1.0,3.0,89,0.00,,,0.00,,2013-04-15 08:33:00,
2013-04-15 03:42:00,68.0,65.0,29.61,WNW,303,1.0,3.0,89,0.00,,,0.00,,2013-04-15 08:42:00,
2013-04-15 03:52:00,68.0,65.0,29.62,SSE,157,1.0,5.0,89,0.00,,,0.00,,2013-04-15 08:52:00,
2013-04-15 04:02:00,68.0,65.0,29.62,South,191,1.0,4.0,90,0.00,,,0.00,,2013-04-15 09:02:00,
2013-04-15 04:12:00,68.0,65.0,29.62,South,191,1.0,4.0,90,0.00,,,0.00,,2013-04-15 09:12:00,
2013-04-15 04:22:00,67.0,64.0,29.62,WSW,250,1.0,4.0,91,0.00,,,0.00,,2013-04-15 09:22:00,
2013-04-15 04:32:00,67.0,64.0,29.62,SW,219,0.0,2.0,91,0.00,,,0.00,,2013-04-15 09:32:00,
2013-04-15 04:42:00,67.0,64.0,29.62,SW,219,0.0,2.0,91,0.00,,,0.00,,2013-04-15 09:42:00,
2013-04-15 04:53:00,67.0,65.0,29.63,North,6,0.0,4.0,92,0.00,,,0.00,,2013-04-15 09:53:00,
2013-04-15 05:02:00,67.0,65.0,29.63,NE,53,0.0,2.0,92,0.00,,,0.00,,2013-04-15 10:02:00,
2013-04-15 05:13:00,67.0,65.0,29.63,NE,53,0.0,2.0,92,0.00,,,0.00,,2013-04-15 10:13:00,
2013-04-15 05:23:00,67.0,65.0,29.64,SSW,207,0.0,4.0,92,0.00,,,0.00,,2013-04-15 10:23:00,
2013-04-15 05:33:00,67.0,65.0,29.64,SE,131,0.0,4.0,93,0.00,,,0.00,,2013-04-15 10:33:00,
2013-04-15 05:42:00,67.0,65.0,29.64,SE,131,0.0,4.0,93,0.00,,,0.00,,2013-04-15 10:42:00,
2013-04-15 05:52:00,67.0,65.0,29.64,NNE,27,0.0,5.0,92,0.00,,,0.00,,2013-04-15 10:52:00,
2013-04-15 06:03:00,68.0,66.0,29.65,SE,126,2.0,11.0,92,0.00,,,0.00,,2013-04-15 11:03:00,
2013-04-15 06:12:00,68.0,66.0,29.65,SE,126,2.0,11.0,92,0.00,,,0.00,,2013-04-15 11:12:00,
2013-04-15 06:22:00,68.0,65.0,29.65,ESE,105,2.0,8.0,91,0.00,,,0.00,,2013-04-15 11:22:00,
2013-04-15 06:32:00,68.0,65.0,29.66,NE,41,2.0,10.0,90,0.00,,,0.00,,2013-04-15 11:32:00,
2013-04-15 06:42:00,68.0,65.0,29.66,NE,41,2.0,10.0,90,0.00,,,0.00,,2013-04-15 11:42:00,
2013-04-15 06:53:00,68.0,65.0,29.66,South,176,2.0,10.0,90,0.00,,,0.00,,2013-04-15 11:53:00,
2013-04-15 07:04:00,68.0,65.0,29.67,SE,143,2.0,9.0,90,0.00,,,0.00,,2013-04-15 12:04:00,
2013-04-15 07:14:00,68.0,65.0,29.67,SE,143,2.0,9.0,90,0.00,,,0.00,,2013-04-15 12:14:00,
2013-04-15 07:23:00,68.0,65.0,29.68,SE,143,2.0,8.0,89,0.00,,,0.00,,2013-04-15 12:23:00,
2013-04-15 07:33:00,68.0,65.0,29.69,SE,132,4.0,8.0,89,0.00,,,0.00,,2013-04-15 12:33:00,
2013-04-15 07:43:00,68.0,65.0,29.69,SE,132,4.0,8.0,89,0.00,,,0.00,,2013-04-15 12:43:00,
2013-04-15 07:52:00,69.0,65.0,29.70,SSE,150,2.0,8.0,88,0.00,,,0.00,,2013-04-15 12:52:00,
2013-04-15 08:04:00,69.0,65.0,29.70,SE,129,2.0,8.0,88,0.00,,,0.00,,2013-04-15 13:04:00,
2013-04-15 08:12:00,69.0,65.0,29.70,SE,129,2.0,8.0,88,0.00,,,0.00,,2013-04-15 13:12:00,
2013-04-15 08:23:00,69.0,65.0,29.71,SE,134,4.0,10.0,87,0.00,,,0.00,,2013-04-15 13:23:00,
2013-04-15 08:33:00,70.0,66.0,29.71,SSE,167,1.0,8.0,86,0.00,,,0.00,,2013-04-15 13:33:00,
2013-04-15 08:43:00,70.0,66.0,29.71,SSE,167,1.0,8.0,86,0.00,,,0.00,,2013-04-15 13:43:00,
2013-04-15 08:53:00,70.0,66.0,29.72,SW,217,3.0,10.0,86,0.00,,,0.00,,2013-04-15 13:53:00,
2013-04-15 09:05:00,71.0,66.0,29.72,SSW,203,3.0,9.0,85,0.00,,,0.00,,2013-04-15 14:05:00,
2013-04-15 09:12:00,71.0,66.0,29.72,SSW,203,3.0,9.0,85,0.00,,,0.00,,2013-04-15 14:12:00,
2013-04-15 09:22:00,71.0,66.0,29.72,SSW,203,3.0,9.0,85,0.00,,,0.00,,2013-04-15 14:22:00,
2013-04-15 09:33:00,72.0,67.0,29.72,WSW,238,4.0,12.0,83,0.00,,,0.00,,2013-04-15 14:33:00,
2013-04-15 09:44:00,72.0,67.0,29.72,WSW,238,4.0,12.0,83,0.00,,,0.00,,2013-04-15 14:44:00,
2013-04-15 09:55:00,72.0,66.0,29.72,South,187,1.0,10.0,82,0.00,,,0.00,,2013-04-15 14:55:00,
2013-04-15 10:03:00,73.0,66.0,29.73,South,191,3.0,14.0,79,0.00,,,0.00,,2013-04-15 15:03:00,
2013-04-15 10:13:00,73.0,66.0,29.73,South,191,3.0,14.0,79,0.00,,,0.00,,2013-04-15 15:13:00,
2013-04-15 10:23:00,75.0,67.0,29.73,South,181,2.0,13.0,77,0.00,,,0.00,,2013-04-15 15:23:00,
2013-04-15 10:35:00,75.0,66.0,29.73,SSW,201,6.0,13.0,74,0.00,,,0.00,,2013-04-15 15:35:00,
2013-04-15 10:43:00,75.0,66.0,29.73,SSW,201,6.0,13.0,74,0.00,,,0.00,,2013-04-15 15:43:00,
2013-04-15 10:53:00,76.0,67.0,29.73,East,100,2.0,12.0,74,0.00,,,0.00,,2013-04-15 15:53:00,
2013-04-15 11:04:00,77.0,67.0,29.74,ESE,113,3.0,10.0,72,0.00,,,0.00,,2013-04-15 16:04:00,
2013-04-15 11:13:00,77.0,67.0,29.74,SE,131,2.0,10.0,72,0.00,,,0.00,,2013-04-15 16:13:00,
2013-04-15 11:24:00,77.0,67.0,29.74,SE,131,2.0,10.0,72,0.00,,,0.00,,2013-04-15 16:24:00,
2013-04-15 11:33:00,77.0,67.0,29.74,SE,131,2.0,10.0,72,0.00,,,0.00,,2013-04-15 16:33:00,
2013-04-15 11:43:00,77.0,67.0,29.74,SE,131,2.0,10.0,72,0.00,,,0.00,,2013-04-15 16:43:00,
2013-04-15 11:53:00,78.0,66.0,29.75,ESE,105,6.0,13.0,67,0.00,,,0.00,,2013-04-15 16:53:00,
2013-04-15 12:04:00,79.0,67.0,29.75,SE,124,2.0,10.0,67,0.00,,,0.00,,2013-04-15 17:04:00,
2013-04-15 12:15:00,79.0,67.0,29.75,SE,124,2.0,10.0,67,0.00,,,0.00,,2013-04-15 17:15:00,
2013-04-15 12:21:00,80.0,68.0,29.75,East,89,5.0,13.0,66,0.00,,,0.00,,2013-04-15 17:21:00,
2013-04-15 12:33:00,80.0,67.0,29.75,SW,231,4.0,14.0,64,0.00,,,0.00,,2013-04-15 17:33:00,
2013-04-15 12:43:00,80.0,67.0,29.75,SW,231,4.0,14.0,64,0.00,,,0.00,,2013-04-15 17:43:00,
2013-04-15 12:52:00,82.0,68.0,29.74,SSW,201,2.0,15.0,63,0.00,,,0.00,,2013-04-15 17:52:00,
2013-04-15 13:03:00,82.0,68.0,29.74,NE,52,1.0,12.0,62,0.00,,,0.00,,2013-04-15 18:03:00,
2013-04-15 13:12:00,82.0,68.0,29.74,NE,52,1.0,12.0,62,0.00,,,0.00,,2013-04-15 18:12:00,
2013-04-15 13:23:00,82.0,67.0,29.74,SE,143,3.0,15.0,61,0.00,,,0.00,,2013-04-15 18:23:00,
2013-04-15 13:32:00,82.0,67.0,29.74,SE,143,3.0,15.0,61,0.00,,,0.00,,2013-04-15 18:32:00,
2013-04-15 13:42:00,82.0,67.0,29.74,SE,143,3.0,15.0,61,0.00,,,0.00,,2013-04-15 18:42:00,
2013-04-15 13:52:00,82.0,67.0,29.74,SE,143,3.0,15.0,61,0.00,,,0.00,,2013-04-15 18:52:00,
2013-04-15 14:02:00,84.0,68.0,29.72,SW,228,2.0,13.0,59,0.00,,,0.00,,2013-04-15 19:02:00,
2013-04-15 14:12:00,84.0,68.0,29.72,SW,228,2.0,13.0,59,0.00,,,0.00,,2013-04-15 19:12:00,
2013-04-15 14:22:00,85.0,68.0,29.71,SSE,153,2.0,15.0,57,0.00,,,0.00,,2013-04-15 19:22:00,
2013-04-15 14:37:00,86.0,69.0,29.71,South,181,3.0,10.0,57,0.00,,,0.00,,2013-04-15 19:37:00,
2013-04-15 14:49:00,86.0,69.0,29.71,South,181,3.0,10.0,57,0.00,,,0.00,,2013-04-15 19:49:00,
2013-04-15 15:02:00,87.0,68.0,29.70,SSW,211,4.0,11.0,53,0.00,,,0.00,,2013-04-15 20:02:00,
2013-04-15 15:11:00,87.0,68.0,29.70,SSW,211,4.0,11.0,53,0.00,,,0.00,,2013-04-15 20:11:00,
2013-04-15 15:22:00,87.0,67.0,29.70,ENE,63,2.0,9.0,52,0.00,,,0.00,,2013-04-15 20:22:00,
2013-04-15 15:32:00,87.0,69.0,29.69,SW,233,1.0,12.0,55,0.00,,,0.00,,2013-04-15 20:32:00,
2013-04-15 15:42:00,87.0,69.0,29.69,SW,233,1.0,12.0,55,0.00,,,0.00,,2013-04-15 20:42:00,
2013-04-15 15:52:00,87.0,68.0,29.68,South,169,2.0,11.0,54,0.00,,,0.00,,2013-04-15 20:52:00,
2013-04-15 16:02:00,87.0,67.0,29.68,South,177,3.0,10.0,52,0.00,,,0.00,,2013-04-15 21:02:00,
2013-04-15 16:12:00,87.0,67.0,29.68,South,177,3.0,10.0,52,0.00,,,0.00,,2013-04-15 21:12:00,
2013-04-15 16:22:00,88.0,68.0,29.68,South,178,1.0,8.0,52,0.00,,,0.00,,2013-04-15 21:22:00,
2013-04-15 16:32:00,88.0,68.0,29.68,WSW,243,3.0,10.0,51,0.00,,,0.00,,2013-04-15 21:32:00,
2013-04-15 16:42:00,88.0,68.0,29.68,WSW,243,3.0,10.0,51,0.00,,,0.00,,2013-04-15 21:42:00,
2013-04-15 16:53:00,87.0,67.0,29.68,SW,221,3.0,10.0,51,0.00,,,0.00,,2013-04-15 21:53:00,
2013-04-15 17:02:00,87.0,67.0,29.67,South,174,2.0,12.0,51,0.00,,,0.00,,2013-04-15 22:02:00,
2013-04-15 17:13:00,87.0,67.0,29.67,South,174,2.0,12.0,51,0.00,,,0.00,,2013-04-15 22:13:00,
2013-04-15 17:23:00,86.0,67.0,29.67,North,10,1.0,10.0,53,0.00,,,0.00,,2013-04-15 22:23:00,
2013-04-15 17:33:00,87.0,68.0,29.67,South,181,2.0,11.0,53,0.00,,,0.00,,2013-04-15 22:33:00,
2013-04-15 17:42:00,87.0,68.0,29.67,South,181,2.0,11.0,53,0.00,,,0.00,,2013-04-15 22:42:00,
2013-04-15 17:52:00,87.0,68.0,29.67,ESE,119,2.0,8.0,54,0.00,,,0.00,,2013-04-15 22:52:00,
2013-04-15 18:02:00,86.0,67.0,29.68,North,6,1.0,6.0,54,0.00,,,0.00,,2013-04-15 23:02:00,
2013-04-15 18:12:00,86.0,67.0,29.68,North,6,1.0,6.0,54,0.00,,,0.00,,2013-04-15 23:12:00,
2013-04-15 18:22:00,85.0,67.0,29.68,East,90,3.0,7.0,55,0.00,,,0.00,,2013-04-15 23:22:00,
2013-04-15 18:32:00,85.0,68.0,29.68,NW,309,1.0,8.0,56,0.00,,,0.00,,2013-04-15 23:32:00,
2013-04-15 18:42:00,85.0,68.0,29.68,NW,309,1.0,8.0,56,0.00,,,0.00,,2013-04-15 23:42:00,
2013-04-15 18:52:00,84.0,67.0,29.68,NNW,332,2.0,10.0,57,0.00,,,0.00,,2013-04-15 23:52:00,
2013-04-15 19:02:00,83.0,67.0,29.67,NW,315,1.0,12.0,58,0.00,,,0.00,,2013-04-16 00:02:00,
2013-04-15 19:12:00,83.0,67.0,29.67,NW,315,1.0,12.0,58,0.00,,,0.00,,2013-04-16 00:12:00,
2013-04-15 19:22:00,82.0,67.0,29.68,NNE,24,0.0,5.0,60,0.00,,,0.00,,2013-04-16 00:22:00,
2013-04-15 19:32:00,82.0,67.0,29.69,SW,233,2.0,10.0,60,0.00,,,0.00,,2013-04-16 00:32:00,
2013-04-15 19:42:00,82.0,67.0,29.69,SW,233,2.0,10.0,60,0.00,,,0.00,,2013-04-16 00:42:00,
2013-04-15 19:52:00,81.0,66.0,29.69,SW,221,1.0,8.0,61,0.00,,,0.00,,2013-04-16 00:52:00,
2013-04-15 20:02:00,80.0,66.0,29.70,ENE,65,1.0,7.0,63,0.00,,,0.00,,2013-04-16 01:02:00,
2013-04-15 20:12:00,79.0,66.0,29.70,North,4,0.0,8.0,65,0.00,,,0.00,,2013-04-16 01:12:00,
2013-04-15 20:22:00,79.0,66.0,29.70,North,4,0.0,8.0,65,0.00,,,0.00,,2013-04-16 01:22:00,
2013-04-15 20:32:00,79.0,67.0,29.71,ENE,70,0.0,6.0,66,0.00,,,0.00,,2013-04-16 01:32:00,
2013-04-15 20:42:00,79.0,67.0,29.71,ENE,70,0.0,6.0,66,0.00,,,0.00,,2013-04-16 01:42:00,
2013-04-15 20:52:00,79.0,67.0,29.71,NE,47,1.0,8.0,66,0.00,,,0.00,,2013-04-16 01:52:00,
2013-04-15 21:02:00,78.0,66.0,29.71,NE,56,1.0,6.0,67,0.00,,,0.00,,2013-04-16 02:02:00,
2013-04-15 21:12:00,78.0,66.0,29.71,NE,56,1.0,6.0,67,0.00,,,0.00,,2013-04-16 02:12:00,
2013-04-15 21:22:00,78.0,66.0,29.71,East,94,2.0,7.0,67,0.00,,,0.00,,2013-04-16 02:22:00,
2013-04-15 21:32:00,78.0,66.0,29.71,NNE,29,1.0,9.0,67,0.00,,,0.00,,2013-04-16 02:32:00,
2013-04-15 21:42:00,78.0,66.0,29.71,NNE,29,1.0,9.0,67,0.00,,,0.00,,2013-04-16 02:42:00,
2013-04-15 21:52:00,78.0,67.0,29.71,NE,45,0.0,6.0,68,0.00,,,0.00,,2013-04-16 02:52:00,
2013-04-15 22:02:00,78.0,67.0,29.71,East,90,1.0,6.0,68,0.00,,,0.00,,2013-04-16 03:02:00,
2013-04-15 22:12:00,78.0,67.0,29.71,East,90,1.0,6.0,68,0.00,,,0.00,,2013-04-16 03:12:00,
2013-04-15 22:22:00,77.0,66.0,29.72,NNW,328,3.0,9.0,70,0.00,,,0.00,,2013-04-16 03:22:00,
2013-04-15 22:33:00,77.0,66.0,29.72,East,89,3.0,10.0,69,0.00,,,0.00,,2013-04-16 03:33:00,
2013-04-15 22:43:00,77.0,66.0,29.72,East,89,3.0,10.0,69,0.00,,,0.00,,2013-04-16 03:43:00,
2013-04-15 22:52:00,77.0,66.0,29.73,ESE,117,2.0,11.0,69,0.00,,,0.00,,2013-04-16 03:52:00,
2013-04-15 23:03:00,77.0,66.0,29.74,NW,304,3.0,14.0,69,0.00,,,0.00,,2013-04-16 04:03:00,
2013-04-15 23:12:00,77.0,66.0,29.74,NW,304,3.0,14.0,69,0.00,,,0.00,,2013-04-16 04:12:00,
2013-04-15 23:23:00,77.0,66.0,29.74,SE,141,3.0,15.0,69,0.00,,,0.00,,2013-04-16 04:23:00,
2013-04-15 23:33:00,76.0,66.0,29.74,SSW,207,3.0,11.0,71,0.00,,,0.00,,2013-04-16 04:33:00,
2013-04-15 23:42:00,76.0,66.0,29.74,SSW,207,3.0,11.0,71,0.00,,,0.00,,2013-04-16 04:42:00,
2013-04-15 23:52:00,76.0,66.0,29.74,South,178,1.0,10.0,72,0.00,,,0.00,,2013-04-16 04:52:00,